Regional Weather Roundup
Issued by NWS New Orleans/Baton Rouge, LA

Home | Current Version | Previous Version | Text Only | Print | Product List | Glossary On
Versions: 1 2 3 4 5 6 7 8 9 10 11 12 13 14 15 16 17 18 19 20 21 22 23 24 25 26 27 28 29 30 31 32 33 34 35 36 37 38 39 40 41 42 43 44 45 46 47 48 49 50
000
ASUS44 KLIX 021712
RWRLIX
NEW ORLEANS REGIONAL WEATHER ROUNDUP
NATIONAL WEATHER SERVICE NEW ORLEANS LA
1200 PM CDT THU JUL 02 2015

NOTE: "FAIR" INDICATES FEW OR NO CLOUDS BELOW 12,000 FEET WITH NO
      SIGNIFICANT WEATHER AND/OR OBSTRUCTIONS TO VISIBILITY.
      SKY/WX - SKY CONDITION AND SIGNIFICANT WEATHER.
      TMP - AIR TEMPERATURE.     DP    - DEWPOINT TEMPERATURE.
      RH  - RELATIVE HUMIDITY.   PRES  - PRESSURE.
      HI  - HEAT INDEX.          WCI   - WIND CHILL INDEX.

*  THESE STATIONS ARE NOT NWS OR FAA STATIONS AND ARE NOT UNDER
   NWS QUALITY CONTROL.

LAZ038-040-048-061>063-065>067-069-021800-
SOUTHEAST LOUISIANA

CITY           SKY/WX    TMP DP  RH WIND       PRES   REMARKS
N.O. AUDUBON   NOT AVBL
N.O. INTL ARPT CLOUDY    87  74  64 SW9       30.10F HX  95
N.O. LAKEFRONT CLOUDY    89  74  60 SW8       30.11F HX  98
N.O. DOWNTOWN*   N/A     88  75  66 SW7       30.11F HX  97
RESERVE*       NOT AVBL
SLIDELL        CLOUDY    86  78  77 SW6       30.10S HX  98
BATON ROUGE    CLOUDY    86  76  71 SW7       30.10S HX  96
BOOTHVILLE     CLOUDY    86  78  77 S12       30.11F HX  98
BELLE CHASSE   CLOUDY    85  77  77 VRB6      30.10S HX  95
BOGALUSA*      NOT AVBL
GALLIANO*      NOT AVBL
NEW ROADS*     NOT AVBL
GONZALES*      NOT AVBL
HAMMOND*       NOT AVBL
HOUMA*         MOSUNNY   86  77  74 S6        30.11S HX  97
PORT FOURCHON* SUNNY     86  75  70 S8        30.12S HX  95

$$

MSZ070-080>082-021800-
SOUTHERN MISSISSIPPI

CITY           SKY/WX    TMP DP  RH WIND       PRES   REMARKS
MCCOMB         PTSUNNY   84  76  76 SW9G17    30.10F HAZE
GULFPORT       CLOUDY    83  77  82 S8        30.10F
BILOXI         CLOUDY    85  77  77 SW10      30.10F HX  95
PASCAGOULA     CLOUDY    84  75  74 SW6       30.11S
STENNIS ARPT*  PTSUNNY   86  73  66 MISG      30.10F

$$

COASTAL OBSERVATIONS
LAKE AND NEARSHORE STATIONS

STATION/POSITION TIME  TEMP    WIND        PRES    WAVE
                       AIR SEA DIR/SP/G            HT/PER
                 (UTC) (F)     (DEG/KT/KT) (MB)    (FT/S)
PASCAGOULA       1600                      1019.4
WAVELAND YACHT   1606   83                 1019.7
GRAND ISLE       1606   85 85              1019.9
SOUTHWEST PASS   1606   84 82              1020.5
NEW CANAL        1606   84 83              1018.9
SHELL BEACH      1606   84                 1018.8

OFFSHORE STATIONS

STATION/POSITION TIME  TEMP    WIND        PRES    WAVE
                       AIR SEA DIR/SP/G            HT/PER
                 (UTC) (F)     (DEG/KT/KT) (MB)    (FT/S)
64 S DAUPHIN ISL 1650   81 84  160/ 10/ 12 1020.1    1/ 7

$$



USA.gov is the U.S. government's official web portal to all federal, state and local government web resources and services.